Flag for Croatia Weather past 2 weeks in Zagreb, Croatia

Now
61 °F

Partly sunny.


Feels Like: 61 °F
Forecast: 54 / 73 °F
Wind: 6 mph from Northeast

Location: Zagreb / Pleso

Current Time: Jul 30, 2015 at 10:25:09 AM

Latest Report: Jul 30, 2015 at 10:00 AM


Visibility: N/A

Pressure: 29.98 "Hg

Humidity: 94%

Dew point: 59 °F

Location of ZagrebLocation

Historic Weather in Zagreb — Graph

°F

Zagreb temperature yesterday

Maximum temperature yesterday: 73 °F (at 4:00 PM)
Minimum temperature yesterday: 61 °F (at 4:30 AM)
Average temperature yesterday: 68 °F

Past Weeks' High & Low Weather Summary

 TemperatureHumidityPressure
High99 °F (Jul 17, 4:00 PM)94% (Jul 23, 7:00 PM)30.09 "Hg (Jul 23, 7:00 PM)
Low59 °F (Jul 28, 1:30 AM)30% (Jul 22, 2:30 PM)29.74 "Hg (Jul 25, 2:00 PM)
Average77 °F66%29.91 "Hg
* Reported Jul 15 9:00 AM — Jul 30 9:00 AM, Zagreb, Weather by CustomWeather, © 2015

Note: Actual official high and low records may vary slightly from our data, if they occured in-between our weather recording intervals... More about our weather records

Advertising

Zagreb weather history for previous 24 hours

 ConditionsComfort  
Time TempWeatherWind HumidityBarometerVisibility
9:00 AM
Thu, Jul 30
61 °FLight rain. More clouds than sun.7 mph88%29.98 "HgN/A
8:30 AM61 °FLight rain. Mostly cloudy.14 mph88%29.95 "Hg5 mi
8:00 AM61 °FRain. Mostly cloudy.9 mph88%29.95 "Hg2 mi
7:30 AM63 °FRain. Mostly cloudy.13 mph83%29.95 "Hg2 mi
7:00 AM63 °FLight rain. Overcast.8 mph83%29.92 "HgN/A
6:30 AM63 °FLight rain. Overcast.8 mph83%29.92 "HgN/A
6:00 AM63 °FLight rain. Overcast.10 mph83%29.92 "HgN/A
5:30 AM64 °FLight rain. Overcast.15 mph78%29.89 "HgN/A
5:00 AM64 °FOvercast.9 mph78%29.92 "HgN/A
4:30 AM64 °FOvercast.5 mph78%29.89 "HgN/A
4:00 AM66 °FOvercast.5 mph73%29.89 "HgN/A
3:30 AM66 °FOvercast.3 mph73%29.89 "HgN/A
3:00 AM66 °FOvercast.7 mph73%29.89 "HgN/A
2:30 AM66 °FOvercast.6 mph73%29.89 "HgN/A
2:00 AM66 °FOvercast.6 mph78%29.89 "HgN/A
1:30 AM66 °FOvercast.7 mph78%29.89 "HgN/A
1:00 AM66 °FOvercast.7 mph78%29.89 "HgN/A
12:30 AM68 °FPassing clouds.8 mph73%29.86 "HgN/A
12:00 AM68 °FPassing clouds.6 mph78%29.86 "HgN/A
11:30 PM
Wed, Jul 29
68 °FPassing clouds.3 mph78%29.86 "HgN/A
11:00 PM68 °FOvercast.3 mph78%29.86 "HgN/A
10:30 PM68 °FPassing clouds.5 mph78%29.86 "HgN/A
10:00 PM70 °FPassing clouds.5 mph73%29.83 "HgN/A
9:30 PM70 °FPassing clouds.5 mph73%29.83 "HgN/A
9:00 PM70 °FPartly sunny.3 mph73%29.83 "HgN/A
8:30 PM70 °FPassing clouds.5 mph69%29.83 "HgN/A
8:00 PM72 °FPassing clouds.3 mph65%29.83 "HgN/A
7:30 PM73 °FPassing clouds.3 mph65%29.83 "HgN/A
7:00 PM73 °FPassing clouds.3 mph65%29.83 "HgN/A
6:30 PM73 °FPassing clouds.5 mph65%29.83 "HgN/A
6:00 PM73 °FPassing clouds.6 mph65%29.83 "HgN/A
5:30 PM73 °FPassing clouds.7 mph65%29.83 "HgN/A
5:00 PM73 °FPassing clouds.9 mph61%29.83 "HgN/A
4:30 PM73 °FPassing clouds.8 mph61%29.86 "HgN/A
4:00 PM73 °FPassing clouds.9 mph61%29.86 "HgN/A
3:30 PM72 °FScattered clouds.10 mph65%29.86 "HgN/A
3:00 PM72 °FPartly sunny.14 mph65%29.86 "HgN/A
2:30 PM72 °FPartly sunny.14 mph65%29.89 "HgN/A
2:00 PM72 °FPartly sunny.13 mph65%29.89 "HgN/A
1:30 PM70 °FPartly sunny.14 mph69%29.89 "HgN/A
1:00 PM68 °FPartly sunny.14 mph73%29.89 "HgN/A
12:30 PM66 °FOvercast.15 mph78%29.89 "HgN/A
12:00 PM64 °FPartly sunny.15 mph78%29.89 "HgN/A
11:30 AM64 °FPartly sunny.17 mph83%29.89 "HgN/A
11:00 AM66 °FPartly sunny.20 mph83%29.89 "HgN/A
10:30 AM68 °FPartly sunny.14 mph83%29.86 "HgN/A
Weather by CustomWeather, © 2015

See weather overviewHow to use our weather pages